Year,Month,Day,Hour,Minute,Value (Times are PST for windgust in km/hr)
2014,02,14,00,00,4.80
2014,02,14,00,01,11.30
2014,02,14,00,02,9.60
2014,02,14,00,03,9.60
2014,02,14,00,04,4.80
2014,02,14,00,05,9.60
2014,02,14,00,06,9.60
2014,02,14,00,07,9.60
2014,02,14,00,08,20.90
2014,02,14,00,09,24.20
2014,02,14,00,10,11.30
2014,02,14,00,11,16.10
2014,02,14,00,12,11.30
2014,02,14,00,13,8.10
2014,02,14,00,14,11.30
2014,02,14,00,15,8.10
2014,02,14,00,16,11.30
2014,02,14,00,17,20.90
2014,02,14,00,18,20.90
2014,02,14,00,19,11.30
2014,02,14,00,20,12.90
2014,02,14,00,21,17.70
2014,02,14,00,22,8.10
2014,02,14,00,23,11.30
2014,02,14,00,24,25.70
2014,02,14,00,25,20.90
2014,02,14,00,26,12.90
2014,02,14,00,27,11.30
2014,02,14,00,28,20.90
2014,02,14,00,29,19.30
2014,02,14,00,30,19.30
2014,02,14,00,31,20.90
2014,02,14,00,32,19.30
2014,02,14,00,33,24.20
2014,02,14,00,34,27.40
2014,02,14,00,35,24.20
2014,02,14,00,36,17.70
2014,02,14,00,37,16.10
2014,02,14,00,38,16.10
2014,02,14,00,39,17.70
2014,02,14,00,40,17.70
2014,02,14,00,41,22.50
2014,02,14,00,42,20.90
2014,02,14,00,43,24.20
2014,02,14,00,44,14.50
2014,02,14,00,45,9.60
2014,02,14,00,46,19.30
2014,02,14,00,47,20.90
2014,02,14,00,48,16.10
2014,02,14,00,49,19.30
2014,02,14,00,50,20.90
2014,02,14,00,51,8.10
2014,02,14,00,52,11.30
2014,02,14,00,53,9.60
2014,02,14,00,54,14.50
2014,02,14,00,55,6.40
2014,02,14,00,56,17.70
2014,02,14,00,57,16.10
2014,02,14,00,58,20.90
2014,02,14,00,59,30.60
2014,02,14,01,00,19.30
2014,02,14,01,01,24.20
2014,02,14,01,02,17.70
2014,02,14,01,03,19.30
2014,02,14,01,04,17.70
2014,02,14,01,05,30.60
2014,02,14,01,06,19.30
2014,02,14,01,07,19.30
2014,02,14,01,08,17.70
2014,02,14,01,09,17.70
2014,02,14,01,10,19.30
2014,02,14,01,11,14.50
2014,02,14,01,12,11.30
2014,02,14,01,13,6.40
2014,02,14,01,14,14.50
2014,02,14,01,15,9.60
2014,02,14,01,16,9.60
2014,02,14,01,17,14.50
2014,02,14,01,18,9.60
2014,02,14,01,19,14.50
2014,02,14,01,20,8.10
2014,02,14,01,21,9.60
2014,02,14,01,22,17.70
2014,02,14,01,23,11.30
2014,02,14,01,24,11.30
2014,02,14,01,25,11.30
2014,02,14,01,26,9.60
2014,02,14,01,27,19.30
2014,02,14,01,28,19.30
2014,02,14,01,29,19.30
2014,02,14,01,30,19.30
2014,02,14,01,31,20.90
2014,02,14,01,32,17.70
2014,02,14,01,33,24.20
2014,02,14,01,34,19.30
2014,02,14,01,35,22.50
2014,02,14,01,36,16.10
2014,02,14,01,37,11.30
2014,02,14,01,38,27.40
2014,02,14,01,39,22.50
2014,02,14,01,40,19.30
2014,02,14,01,41,14.50
2014,02,14,01,42,17.70
2014,02,14,01,43,20.90
2014,02,14,01,44,22.50
2014,02,14,01,45,25.70
2014,02,14,01,46,24.20
2014,02,14,01,47,17.70
2014,02,14,01,48,22.50
2014,02,14,01,49,20.90
2014,02,14,01,50,25.70
2014,02,14,01,51,19.30
2014,02,14,01,52,27.40
2014,02,14,01,53,22.50
2014,02,14,01,54,19.30
2014,02,14,01,55,17.70
2014,02,14,01,56,29.00
2014,02,14,01,57,33.80
2014,02,14,01,58,27.40
2014,02,14,01,59,27.40
2014,02,14,02,00,24.20
2014,02,14,02,01,30.60
2014,02,14,02,02,24.20
2014,02,14,02,03,24.20
2014,02,14,02,04,22.50
2014,02,14,02,05,27.40
2014,02,14,02,06,29.00
2014,02,14,02,07,35.40
2014,02,14,02,08,24.20
2014,02,14,02,09,33.80
2014,02,14,02,10,40.20
2014,02,14,02,11,37.00
2014,02,14,02,12,33.80
2014,02,14,02,13,38.60
2014,02,14,02,14,33.80
2014,02,14,02,15,27.40
2014,02,14,02,16,38.60
2014,02,14,02,17,35.40
2014,02,14,02,18,43.50
2014,02,14,02,19,29.00
2014,02,14,02,20,32.20
2014,02,14,02,21,35.40
2014,02,14,02,22,27.40
2014,02,14,02,23,32.20
2014,02,14,02,24,35.40
2014,02,14,02,25,27.40
2014,02,14,02,26,32.20
2014,02,14,02,27,43.50
2014,02,14,02,28,35.40
2014,02,14,02,29,43.50
2014,02,14,02,30,38.60
2014,02,14,02,31,35.40
2014,02,14,02,32,27.40
2014,02,14,02,33,32.20
2014,02,14,02,34,37.00
2014,02,14,02,35,51.50
2014,02,14,02,36,25.70
2014,02,14,02,37,32.20
2014,02,14,02,38,30.60
2014,02,14,02,39,43.50
2014,02,14,02,40,37.00
2014,02,14,02,41,43.50
2014,02,14,02,42,37.00
2014,02,14,02,43,33.80
2014,02,14,02,44,30.60
2014,02,14,02,45,43.50
2014,02,14,02,46,46.70
2014,02,14,02,47,38.60
2014,02,14,02,48,33.80
2014,02,14,02,49,24.20
2014,02,14,02,50,41.80
2014,02,14,02,51,35.40
2014,02,14,02,52,43.50
2014,02,14,02,53,35.40
2014,02,14,02,54,41.80
2014,02,14,02,55,35.40
2014,02,14,02,56,46.70
2014,02,14,02,57,35.40
2014,02,14,02,58,29.00
2014,02,14,02,59,27.40
2014,02,14,03,00,51.50
2014,02,14,03,01,40.20
2014,02,14,03,02,40.20
2014,02,14,03,03,33.80
2014,02,14,03,04,38.60
2014,02,14,03,05,45.10
2014,02,14,03,06,30.60
2014,02,14,03,07,30.60
2014,02,14,03,08,30.60
2014,02,14,03,09,40.20
2014,02,14,03,10,37.00
2014,02,14,03,11,38.60
2014,02,14,03,12,38.60
2014,02,14,03,13,32.20
2014,02,14,03,14,24.20
2014,02,14,03,15,29.00
2014,02,14,03,16,45.10
2014,02,14,03,17,53.10
2014,02,14,03,18,38.60
2014,02,14,03,19,53.10
2014,02,14,03,20,43.50
2014,02,14,03,21,43.50
2014,02,14,03,22,37.00
2014,02,14,03,23,38.60
2014,02,14,03,24,33.80
2014,02,14,03,25,25.70
2014,02,14,03,26,20.90
2014,02,14,03,27,20.90
2014,02,14,03,28,19.30
2014,02,14,03,29,35.40
2014,02,14,03,30,37.00
2014,02,14,03,31,27.40
2014,02,14,03,32,24.20
2014,02,14,03,33,24.20
2014,02,14,03,34,17.70
2014,02,14,03,35,19.30
2014,02,14,03,36,19.30
2014,02,14,03,37,41.80
2014,02,14,03,38,49.90
2014,02,14,03,39,37.00
2014,02,14,03,40,30.60
2014,02,14,03,41,25.70
2014,02,14,03,42,25.70
2014,02,14,03,43,49.90
2014,02,14,03,44,48.30
2014,02,14,03,45,35.40
2014,02,14,03,46,38.60
2014,02,14,03,47,30.60
2014,02,14,03,48,35.40
2014,02,14,03,49,49.90
2014,02,14,03,50,46.70
2014,02,14,03,51,35.40
2014,02,14,03,52,35.40
2014,02,14,03,53,32.20
2014,02,14,03,54,45.10
2014,02,14,03,55,37.00
2014,02,14,03,56,25.70
2014,02,14,03,57,38.60
2014,02,14,03,58,43.50
2014,02,14,03,59,40.20
2014,02,14,04,00,41.80
2014,02,14,04,01,35.40
2014,02,14,04,02,49.90
2014,02,14,04,03,45.10
2014,02,14,04,04,37.00
2014,02,14,04,05,48.30
2014,02,14,04,06,37.00
2014,02,14,04,07,38.60
2014,02,14,04,08,33.80
2014,02,14,04,09,33.80
2014,02,14,04,10,33.80
2014,02,14,04,11,24.20
2014,02,14,04,12,32.20
2014,02,14,04,13,33.80
2014,02,14,04,14,38.60
2014,02,14,04,15,37.00
2014,02,14,04,16,51.50
2014,02,14,04,17,51.50
2014,02,14,04,18,33.80
2014,02,14,04,19,33.80
2014,02,14,04,20,37.00
2014,02,14,04,21,40.20
2014,02,14,04,22,51.50
2014,02,14,04,23,43.50
2014,02,14,04,24,35.40
2014,02,14,04,25,37.00
2014,02,14,04,26,48.30
2014,02,14,04,27,33.80
2014,02,14,04,28,46.70
2014,02,14,04,29,41.80
2014,02,14,04,30,43.50
2014,02,14,04,31,29.00
2014,02,14,04,32,35.40
2014,02,14,04,33,33.80
2014,02,14,04,34,38.60
2014,02,14,04,35,48.30
2014,02,14,04,36,32.20
2014,02,14,04,37,46.70
2014,02,14,04,38,40.20
2014,02,14,04,39,38.60
2014,02,14,04,40,38.60
2014,02,14,04,41,33.80
2014,02,14,04,42,38.60
2014,02,14,04,43,43.50
2014,02,14,04,44,35.40
2014,02,14,04,45,29.00
2014,02,14,04,46,30.60
2014,02,14,04,47,32.20
2014,02,14,04,48,37.00
2014,02,14,04,49,37.00
2014,02,14,04,50,35.40
2014,02,14,04,51,38.60
2014,02,14,04,52,40.20
2014,02,14,04,53,37.00
2014,02,14,04,54,35.40
2014,02,14,04,55,30.60
2014,02,14,04,56,32.20
2014,02,14,04,57,27.40
2014,02,14,04,58,35.40
2014,02,14,04,59,40.20
2014,02,14,05,00,32.20
2014,02,14,05,01,25.70
2014,02,14,05,02,27.40
2014,02,14,05,03,24.20
2014,02,14,05,04,20.90
2014,02,14,05,05,25.70
2014,02,14,05,06,30.60
2014,02,14,05,07,25.70
2014,02,14,05,08,27.40
2014,02,14,05,09,19.30
2014,02,14,05,10,25.70
2014,02,14,05,11,22.50
2014,02,14,05,12,30.60
2014,02,14,05,13,29.00
2014,02,14,05,14,24.20
2014,02,14,05,15,16.10
2014,02,14,05,16,25.70
2014,02,14,05,17,24.20
2014,02,14,05,18,16.10
2014,02,14,05,19,11.30
2014,02,14,05,20,16.10
2014,02,14,05,21,22.50
2014,02,14,05,22,16.10
2014,02,14,05,23,14.50
2014,02,14,05,24,20.90
2014,02,14,05,25,17.70
2014,02,14,05,26,17.70
2014,02,14,05,27,16.10
2014,02,14,05,28,30.60
2014,02,14,05,29,22.50
2014,02,14,05,30,22.50
2014,02,14,05,31,19.30
2014,02,14,05,32,20.90
2014,02,14,05,33,22.50
2014,02,14,05,34,20.90
2014,02,14,05,35,16.10
2014,02,14,05,36,19.30
2014,02,14,05,37,22.50
2014,02,14,05,38,24.20
2014,02,14,05,39,24.20
2014,02,14,05,40,20.90
2014,02,14,05,41,20.90
2014,02,14,05,42,16.10
2014,02,14,05,43,20.90
2014,02,14,05,44,24.20
2014,02,14,05,45,32.20
2014,02,14,05,46,24.20
2014,02,14,05,47,29.00
2014,02,14,05,48,32.20
2014,02,14,05,49,27.40
2014,02,14,05,50,22.50
2014,02,14,05,51,24.20
2014,02,14,05,52,22.50
2014,02,14,05,53,20.90
2014,02,14,05,54,20.90
2014,02,14,05,55,22.50
2014,02,14,05,56,19.30
2014,02,14,05,57,22.50
2014,02,14,05,58,17.70
2014,02,14,05,59,12.90
2014,02,14,06,00,17.70
2014,02,14,06,01,17.70
2014,02,14,06,02,16.10
2014,02,14,06,03,11.30
2014,02,14,06,04,11.30
2014,02,14,06,05,11.30
2014,02,14,06,06,19.30
2014,02,14,06,07,14.50
2014,02,14,06,08,14.50
2014,02,14,06,09,8.10
2014,02,14,06,10,11.30
2014,02,14,06,11,16.10
2014,02,14,06,12,19.30
2014,02,14,06,13,11.30
2014,02,14,06,14,14.50
2014,02,14,06,15,17.70
2014,02,14,06,16,16.10
2014,02,14,06,17,11.30
2014,02,14,06,18,16.10
2014,02,14,06,19,9.60
2014,02,14,06,20,11.30
2014,02,14,06,21,17.70
2014,02,14,06,22,9.60
2014,02,14,06,23,11.30
2014,02,14,06,24,9.60
2014,02,14,06,25,11.30
2014,02,14,06,26,16.10
2014,02,14,06,27,16.10
2014,02,14,06,28,19.30
2014,02,14,06,29,16.10
2014,02,14,06,30,17.70
2014,02,14,06,31,19.30
2014,02,14,06,32,16.10
2014,02,14,06,33,11.30
2014,02,14,06,34,11.30
2014,02,14,06,35,12.90
2014,02,14,06,36,16.10
2014,02,14,06,37,11.30
2014,02,14,06,38,17.70
2014,02,14,06,39,16.10
2014,02,14,06,40,17.70
2014,02,14,06,41,14.50
2014,02,14,06,42,14.50
2014,02,14,06,43,14.50
2014,02,14,06,44,16.10
2014,02,14,06,45,16.10
2014,02,14,06,46,14.50
2014,02,14,06,47,19.30
2014,02,14,06,48,16.10
2014,02,14,06,49,14.50
2014,02,14,06,50,11.30
2014,02,14,06,51,16.10
2014,02,14,06,52,11.30
2014,02,14,06,53,14.50
2014,02,14,06,54,16.10
2014,02,14,06,55,11.30
2014,02,14,06,56,11.30
2014,02,14,06,57,11.30
2014,02,14,06,58,12.90
2014,02,14,06,59,11.30
2014,02,14,07,00,14.50
2014,02,14,07,01,17.70
2014,02,14,07,02,14.50
2014,02,14,07,03,11.30
2014,02,14,07,04,11.30
2014,02,14,07,05,16.10
2014,02,14,07,06,17.70
2014,02,14,07,07,16.10
2014,02,14,07,08,17.70
2014,02,14,07,09,17.70
2014,02,14,07,10,16.10
2014,02,14,07,11,9.60
2014,02,14,07,12,11.30
2014,02,14,07,13,11.30
2014,02,14,07,14,9.60
2014,02,14,07,15,8.10
2014,02,14,07,16,11.30
2014,02,14,07,17,16.10
2014,02,14,07,18,9.60
2014,02,14,07,19,8.10
2014,02,14,07,20,11.30
2014,02,14,07,21,16.10
2014,02,14,07,22,16.10
2014,02,14,07,23,16.10
2014,02,14,07,24,19.30
2014,02,14,07,25,11.30
2014,02,14,07,26,16.10
2014,02,14,07,27,17.70
2014,02,14,07,28,14.50
2014,02,14,07,29,20.90
2014,02,14,07,30,17.70
2014,02,14,07,31,17.70
2014,02,14,07,32,20.90
2014,02,14,07,33,17.70
2014,02,14,07,34,17.70
2014,02,14,07,35,17.70
2014,02,14,07,36,16.10
2014,02,14,07,37,17.70
2014,02,14,07,38,17.70
2014,02,14,07,39,16.10
2014,02,14,07,40,17.70
2014,02,14,07,41,16.10
2014,02,14,07,42,19.30
2014,02,14,07,43,22.50
2014,02,14,07,44,16.10
2014,02,14,07,45,19.30
2014,02,14,07,46,22.50
2014,02,14,07,47,19.30
2014,02,14,07,48,22.50
2014,02,14,07,49,25.70
2014,02,14,07,50,19.30
2014,02,14,07,51,16.10
2014,02,14,07,52,19.30
2014,02,14,07,53,19.30
2014,02,14,07,54,16.10
2014,02,14,07,55,24.20
2014,02,14,07,56,14.50
2014,02,14,07,57,17.70
2014,02,14,07,58,20.90
2014,02,14,07,59,22.50
2014,02,14,08,00,19.30
2014,02,14,08,01,19.30
2014,02,14,08,02,25.70
2014,02,14,08,03,24.20
2014,02,14,08,04,17.70
2014,02,14,08,05,29.00
2014,02,14,08,06,27.40
2014,02,14,08,07,19.30
2014,02,14,08,08,17.70
2014,02,14,08,09,24.20
2014,02,14,08,10,27.40
2014,02,14,08,11,29.00
2014,02,14,08,12,25.70
2014,02,14,08,13,29.00
2014,02,14,08,14,24.20
2014,02,14,08,15,25.70
2014,02,14,08,16,25.70
2014,02,14,08,17,22.50
2014,02,14,08,18,24.20
2014,02,14,08,19,25.70
2014,02,14,08,20,20.90
2014,02,14,08,21,24.20
2014,02,14,08,22,27.40
2014,02,14,08,23,30.60
2014,02,14,08,24,30.60
2014,02,14,08,25,38.60
2014,02,14,08,26,41.80
2014,02,14,08,27,30.60
2014,02,14,08,28,25.70
2014,02,14,08,29,22.50
2014,02,14,08,30,27.40
2014,02,14,08,31,27.40
2014,02,14,08,32,27.40
2014,02,14,08,33,32.20
2014,02,14,08,34,25.70
2014,02,14,08,35,38.60
2014,02,14,08,36,32.20
2014,02,14,08,37,33.80
2014,02,14,08,38,22.50
2014,02,14,08,39,30.60
2014,02,14,08,40,19.30
2014,02,14,08,41,32.20
2014,02,14,08,42,30.60
2014,02,14,08,43,24.20
2014,02,14,08,44,22.50
2014,02,14,08,45,25.70
2014,02,14,08,46,29.00
2014,02,14,08,47,27.40
2014,02,14,08,48,32.20
2014,02,14,08,49,41.80
2014,02,14,08,50,33.80
2014,02,14,08,51,29.00
2014,02,14,08,52,25.70
2014,02,14,08,53,33.80
2014,02,14,08,54,27.40
2014,02,14,08,55,25.70
2014,02,14,08,56,22.50
2014,02,14,08,57,25.70
2014,02,14,08,58,30.60
2014,02,14,08,59,27.40
2014,02,14,09,00,25.70
2014,02,14,09,01,22.50
2014,02,14,09,02,25.70
2014,02,14,09,03,29.00
2014,02,14,09,04,19.30
2014,02,14,09,05,24.20
2014,02,14,09,06,30.60
2014,02,14,09,07,27.40
2014,02,14,09,08,30.60
2014,02,14,09,09,27.40
2014,02,14,09,10,20.90
2014,02,14,09,11,32.20
2014,02,14,09,12,32.20
2014,02,14,09,13,29.00
2014,02,14,09,14,29.00
2014,02,14,09,15,25.70
2014,02,14,09,16,30.60
2014,02,14,09,17,29.00
2014,02,14,09,18,33.80
2014,02,14,09,19,25.70
2014,02,14,09,20,25.70
2014,02,14,09,21,25.70
2014,02,14,09,22,29.00
2014,02,14,09,23,29.00
2014,02,14,09,24,27.40
2014,02,14,09,25,22.50
2014,02,14,09,26,17.70
2014,02,14,09,27,24.20
2014,02,14,09,28,20.90
2014,02,14,09,29,33.80
2014,02,14,09,30,29.00
2014,02,14,09,31,30.60
2014,02,14,09,32,27.40
2014,02,14,09,33,27.40
2014,02,14,09,34,17.70
2014,02,14,09,35,11.30
2014,02,14,09,36,22.50
2014,02,14,09,37,25.70
2014,02,14,09,38,25.70
2014,02,14,09,39,19.30
2014,02,14,09,40,20.90
2014,02,14,09,41,17.70
2014,02,14,09,42,25.70
2014,02,14,09,43,30.60
2014,02,14,09,44,30.60
2014,02,14,09,45,25.70
2014,02,14,09,46,24.20
2014,02,14,09,47,29.00
2014,02,14,09,48,35.40
2014,02,14,09,49,30.60
2014,02,14,09,50,27.40
2014,02,14,09,51,25.70
2014,02,14,09,52,17.70
2014,02,14,09,53,27.40
2014,02,14,09,54,25.70
2014,02,14,09,55,22.50
2014,02,14,09,56,22.50
2014,02,14,09,57,24.20
2014,02,14,09,58,35.40
2014,02,14,09,59,19.30
2014,02,14,10,00,24.20
2014,02,14,10,01,24.20
2014,02,14,10,02,35.40
2014,02,14,10,03,32.20
2014,02,14,10,04,17.70
2014,02,14,10,05,20.90
2014,02,14,10,06,32.20
2014,02,14,10,07,20.90
2014,02,14,10,08,30.60
2014,02,14,10,09,35.40
2014,02,14,10,10,38.60
2014,02,14,10,11,19.30
2014,02,14,10,12,33.80
2014,02,14,10,13,24.20
2014,02,14,10,14,35.40
2014,02,14,10,15,35.40
2014,02,14,10,16,25.70
2014,02,14,10,17,29.00
2014,02,14,10,18,24.20
2014,02,14,10,19,24.20
2014,02,14,10,20,24.20
2014,02,14,10,21,24.20
2014,02,14,10,22,16.10
2014,02,14,10,23,20.90
2014,02,14,10,24,29.00
2014,02,14,10,25,17.70
2014,02,14,10,26,29.00
2014,02,14,10,27,30.60
2014,02,14,10,28,29.00
2014,02,14,10,29,25.70
2014,02,14,10,30,32.20
2014,02,14,10,31,29.00
2014,02,14,10,32,22.50
2014,02,14,10,33,20.90
2014,02,14,10,34,25.70
2014,02,14,10,35,29.00
2014,02,14,10,36,38.60
2014,02,14,10,37,24.20
2014,02,14,10,38,24.20
2014,02,14,10,39,25.70
2014,02,14,10,40,29.00
2014,02,14,10,41,16.10
2014,02,14,10,42,27.40
2014,02,14,10,43,22.50
2014,02,14,10,44,32.20
2014,02,14,10,45,32.20
2014,02,14,10,46,25.70
2014,02,14,10,47,22.50
2014,02,14,10,48,17.70
2014,02,14,10,49,20.90
2014,02,14,10,50,16.10
2014,02,14,10,51,20.90
2014,02,14,10,52,19.30
2014,02,14,10,53,17.70
2014,02,14,10,54,19.30
2014,02,14,10,55,20.90
2014,02,14,10,56,27.40
2014,02,14,10,57,25.70
2014,02,14,10,58,30.60
2014,02,14,10,59,29.00
2014,02,14,11,00,20.90
2014,02,14,11,01,25.70
2014,02,14,11,02,20.90
2014,02,14,11,03,25.70
2014,02,14,11,04,22.50
2014,02,14,11,05,32.20
2014,02,14,11,06,24.20
2014,02,14,11,07,24.20
2014,02,14,11,08,33.80
2014,02,14,11,09,30.60
2014,02,14,11,10,27.40
2014,02,14,11,11,22.50
2014,02,14,11,12,17.70
2014,02,14,11,13,16.10
2014,02,14,11,14,25.70
2014,02,14,11,15,25.70
2014,02,14,11,16,29.00
2014,02,14,11,17,24.20
2014,02,14,11,18,29.00
2014,02,14,11,19,22.50
2014,02,14,11,20,25.70
2014,02,14,11,21,32.20
2014,02,14,11,22,24.20
2014,02,14,11,23,37.00
2014,02,14,11,24,27.40
2014,02,14,11,25,19.30
2014,02,14,11,26,17.70
2014,02,14,11,27,27.40
2014,02,14,11,28,25.70
2014,02,14,11,29,32.20
2014,02,14,11,30,25.70
2014,02,14,11,31,27.40
2014,02,14,11,32,25.70
2014,02,14,11,33,25.70
2014,02,14,11,34,32.20
2014,02,14,11,35,27.40
2014,02,14,11,36,29.00
2014,02,14,11,37,27.40
2014,02,14,11,38,33.80
2014,02,14,11,39,25.70
2014,02,14,11,40,25.70
2014,02,14,11,41,22.50
2014,02,14,11,42,27.40
2014,02,14,11,43,29.00
2014,02,14,11,44,32.20
2014,02,14,11,45,25.70
2014,02,14,11,46,20.90
2014,02,14,11,47,19.30
2014,02,14,11,48,32.20
2014,02,14,11,49,38.60
2014,02,14,11,50,38.60
2014,02,14,11,51,33.80
2014,02,14,11,52,25.70
2014,02,14,11,53,25.70
2014,02,14,11,54,33.80
2014,02,14,11,55,33.80
2014,02,14,11,56,27.40
2014,02,14,11,57,22.50
2014,02,14,11,58,20.90
2014,02,14,11,59,30.60
2014,02,14,12,00,30.60
2014,02,14,12,01,19.30
2014,02,14,12,02,29.00
2014,02,14,12,03,22.50
2014,02,14,12,04,25.70
2014,02,14,12,05,33.80
2014,02,14,12,06,22.50
2014,02,14,12,07,32.20
2014,02,14,12,08,24.20
2014,02,14,12,09,25.70
2014,02,14,12,10,27.40
2014,02,14,12,11,20.90
2014,02,14,12,12,19.30
2014,02,14,12,13,24.20
2014,02,14,12,14,30.60
2014,02,14,12,15,35.40
2014,02,14,12,16,35.40
2014,02,14,12,17,32.20
2014,02,14,12,18,37.00
2014,02,14,12,19,22.50
2014,02,14,12,20,25.70
2014,02,14,12,21,38.60
2014,02,14,12,22,22.50
2014,02,14,12,23,29.00
2014,02,14,12,24,29.00
2014,02,14,12,25,35.40
2014,02,14,12,26,22.50
2014,02,14,12,27,45.10
2014,02,14,12,28,43.50
2014,02,14,12,29,35.40
2014,02,14,12,30,32.20
2014,02,14,12,31,43.50
2014,02,14,12,32,43.50
2014,02,14,12,33,40.20
2014,02,14,12,34,30.60
2014,02,14,12,35,38.60
2014,02,14,12,36,33.80
2014,02,14,12,37,38.60
2014,02,14,12,38,43.50
2014,02,14,12,39,32.20
2014,02,14,12,40,32.20
2014,02,14,12,41,29.00
2014,02,14,12,42,38.60
2014,02,14,12,43,25.70
2014,02,14,12,44,35.40
2014,02,14,12,45,30.60
2014,02,14,12,46,35.40
2014,02,14,12,47,30.60
2014,02,14,12,48,32.20
2014,02,14,12,49,37.00
2014,02,14,12,50,33.80
2014,02,14,12,51,29.00
2014,02,14,12,52,32.20
2014,02,14,12,53,30.60
2014,02,14,12,54,32.20
2014,02,14,12,55,27.40
2014,02,14,12,56,17.70
2014,02,14,12,57,24.20
2014,02,14,12,58,33.80
2014,02,14,12,59,25.70
2014,02,14,13,00,37.00
2014,02,14,13,01,38.60
2014,02,14,13,02,33.80
2014,02,14,13,03,33.80
2014,02,14,13,04,27.40
2014,02,14,13,05,33.80
2014,02,14,13,06,30.60
2014,02,14,13,07,30.60
2014,02,14,13,08,32.20
2014,02,14,13,09,27.40
2014,02,14,13,10,35.40
2014,02,14,13,11,25.70
2014,02,14,13,12,32.20
2014,02,14,13,13,29.00
2014,02,14,13,14,41.80
2014,02,14,13,15,38.60
2014,02,14,13,16,32.20
2014,02,14,13,17,29.00
2014,02,14,13,18,35.40
2014,02,14,13,19,30.60
2014,02,14,13,20,43.50
2014,02,14,13,21,41.80
2014,02,14,13,22,40.20
2014,02,14,13,23,32.20
2014,02,14,13,24,41.80
2014,02,14,13,25,45.10
2014,02,14,13,26,35.40
2014,02,14,13,27,29.00
2014,02,14,13,28,43.50
2014,02,14,13,29,33.80
2014,02,14,13,30,30.60
2014,02,14,13,31,33.80
2014,02,14,13,32,25.70
2014,02,14,13,33,33.80
2014,02,14,13,34,27.40
2014,02,14,13,35,35.40
2014,02,14,13,36,29.00
2014,02,14,13,37,29.00
2014,02,14,13,38,37.00
2014,02,14,13,39,29.00
2014,02,14,13,40,37.00
2014,02,14,13,41,33.80
2014,02,14,13,42,45.10
2014,02,14,13,43,35.40
2014,02,14,13,44,40.20
2014,02,14,13,45,38.60
2014,02,14,13,46,33.80
2014,02,14,13,47,32.20
2014,02,14,13,48,25.70
2014,02,14,13,49,22.50
2014,02,14,13,50,17.70
2014,02,14,13,51,19.30
2014,02,14,13,52,29.00
2014,02,14,13,53,33.80
2014,02,14,13,54,24.20
2014,02,14,13,55,29.00
2014,02,14,13,56,24.20
2014,02,14,13,57,30.60
2014,02,14,13,58,25.70
2014,02,14,13,59,33.80
2014,02,14,14,00,29.00
2014,02,14,14,01,38.60
2014,02,14,14,02,45.10
2014,02,14,14,03,40.20
2014,02,14,14,04,32.20
2014,02,14,14,05,29.00
2014,02,14,14,06,30.60
2014,02,14,14,07,37.00
2014,02,14,14,08,27.40
2014,02,14,14,09,40.20
2014,02,14,14,10,46.70
2014,02,14,14,11,53.10
2014,02,14,14,12,35.40
2014,02,14,14,13,38.60
2014,02,14,14,14,33.80
2014,02,14,14,15,48.30
2014,02,14,14,16,30.60
2014,02,14,14,17,38.60
2014,02,14,14,18,53.10
2014,02,14,14,19,45.10
2014,02,14,14,20,35.40
2014,02,14,14,21,38.60
2014,02,14,14,22,41.80
2014,02,14,14,23,37.00
2014,02,14,14,24,41.80
2014,02,14,14,25,40.20
2014,02,14,14,26,43.50
2014,02,14,14,27,49.90
2014,02,14,14,28,38.60
2014,02,14,14,29,48.30
2014,02,14,14,30,33.80
2014,02,14,14,31,24.20
2014,02,14,14,32,41.80
2014,02,14,14,33,43.50
2014,02,14,14,34,37.00
2014,02,14,14,35,35.40
2014,02,14,14,36,37.00
2014,02,14,14,37,29.00
2014,02,14,14,38,25.70
2014,02,14,14,39,30.60
2014,02,14,14,40,37.00
2014,02,14,14,41,48.30
2014,02,14,14,42,27.40
2014,02,14,14,43,30.60
2014,02,14,14,44,27.40
2014,02,14,14,45,27.40
2014,02,14,14,46,32.20
2014,02,14,14,47,30.60
2014,02,14,14,48,22.50
2014,02,14,14,49,24.20
2014,02,14,14,50,29.00
2014,02,14,14,51,25.70
2014,02,14,14,52,19.30
2014,02,14,14,53,27.40
2014,02,14,14,54,30.60
2014,02,14,14,55,24.20
2014,02,14,14,56,22.50
2014,02,14,14,57,25.70
2014,02,14,14,58,30.60
2014,02,14,14,59,35.40
2014,02,14,15,00,37.00
2014,02,14,15,01,29.00
2014,02,14,15,02,27.40
2014,02,14,15,03,24.20
2014,02,14,15,04,22.50
2014,02,14,15,05,30.60
2014,02,14,15,06,24.20
2014,02,14,15,07,24.20
2014,02,14,15,08,24.20
2014,02,14,15,09,24.20
2014,02,14,15,10,20.90
2014,02,14,15,11,29.00
2014,02,14,15,12,33.80
2014,02,14,15,13,22.50
2014,02,14,15,14,24.20
2014,02,14,15,15,27.40
2014,02,14,15,16,22.50
2014,02,14,15,17,22.50
2014,02,14,15,18,33.80
2014,02,14,15,19,27.40
2014,02,14,15,20,35.40
2014,02,14,15,21,24.20
2014,02,14,15,22,24.20
2014,02,14,15,23,20.90
2014,02,14,15,24,20.90
2014,02,14,15,25,25.70
2014,02,14,15,26,24.20
2014,02,14,15,27,24.20
2014,02,14,15,28,19.30
2014,02,14,15,29,16.10
2014,02,14,15,30,14.50
2014,02,14,15,31,16.10
2014,02,14,15,32,16.10
2014,02,14,15,33,24.20
2014,02,14,15,34,24.20
2014,02,14,15,35,27.40
2014,02,14,15,36,19.30
2014,02,14,15,37,32.20
2014,02,14,15,38,29.00
2014,02,14,15,39,25.70
2014,02,14,15,40,19.30
2014,02,14,15,41,33.80
2014,02,14,15,42,19.30
2014,02,14,15,43,19.30
2014,02,14,15,44,29.00
2014,02,14,15,45,22.50
2014,02,14,15,46,24.20
2014,02,14,15,47,22.50
2014,02,14,15,48,27.40
2014,02,14,15,49,22.50
2014,02,14,15,50,32.20
2014,02,14,15,51,29.00
2014,02,14,15,52,30.60
2014,02,14,15,53,35.40
2014,02,14,15,54,27.40
2014,02,14,15,55,29.00
2014,02,14,15,56,33.80
2014,02,14,15,57,25.70
2014,02,14,15,58,17.70
2014,02,14,15,59,20.90
2014,02,14,16,00,25.70
2014,02,14,16,01,30.60
2014,02,14,16,02,27.40
2014,02,14,16,03,22.50
2014,02,14,16,04,25.70
2014,02,14,16,05,30.60
2014,02,14,16,06,22.50
2014,02,14,16,07,32.20
2014,02,14,16,08,25.70
2014,02,14,16,09,24.20
2014,02,14,16,10,25.70
2014,02,14,16,11,22.50
2014,02,14,16,12,20.90
2014,02,14,16,13,25.70
2014,02,14,16,14,30.60
2014,02,14,16,15,32.20
2014,02,14,16,16,43.50
2014,02,14,16,17,29.00
2014,02,14,16,18,38.60
2014,02,14,16,19,38.60
2014,02,14,16,20,35.40
2014,02,14,16,21,30.60
2014,02,14,16,22,27.40
2014,02,14,16,23,33.80
2014,02,14,16,24,40.20
2014,02,14,16,25,41.80
2014,02,14,16,26,29.00
2014,02,14,16,27,29.00
2014,02,14,16,28,40.20
2014,02,14,16,29,30.60
2014,02,14,16,30,37.00
2014,02,14,16,31,27.40
2014,02,14,16,32,29.00
2014,02,14,16,33,29.00
2014,02,14,16,34,25.70
2014,02,14,16,35,32.20
2014,02,14,16,36,27.40
2014,02,14,16,37,30.60
2014,02,14,16,38,27.40
2014,02,14,16,39,35.40
2014,02,14,16,40,33.80
2014,02,14,16,41,53.10
2014,02,14,16,42,40.20
2014,02,14,16,43,40.20
2014,02,14,16,44,37.00
2014,02,14,16,45,25.70
2014,02,14,16,46,27.40
2014,02,14,16,47,22.50
2014,02,14,16,48,32.20
2014,02,14,16,49,30.60
2014,02,14,16,50,25.70
2014,02,14,16,51,27.40
2014,02,14,16,52,27.40
2014,02,14,16,53,27.40
2014,02,14,16,54,35.40
2014,02,14,16,55,20.90
2014,02,14,16,56,40.20
2014,02,14,16,57,35.40
2014,02,14,16,58,35.40
2014,02,14,16,59,38.60
2014,02,14,17,00,27.40
2014,02,14,17,01,35.40
2014,02,14,17,02,30.60
2014,02,14,17,03,20.90
2014,02,14,17,04,24.20
2014,02,14,17,05,29.00
2014,02,14,17,06,24.20
2014,02,14,17,07,20.90
2014,02,14,17,08,22.50
2014,02,14,17,09,32.20
2014,02,14,17,10,25.70
2014,02,14,17,11,24.20
2014,02,14,17,12,20.90
2014,02,14,17,13,20.90
2014,02,14,17,14,20.90
2014,02,14,17,15,17.70
2014,02,14,17,16,19.30
2014,02,14,17,17,24.20
2014,02,14,17,18,29.00
2014,02,14,17,19,27.40
2014,02,14,17,20,27.40